Погода в Улунди

ЮАР     28°19′55″S   31°24′54″E
темп.,
°C
ветер,
м/с
пор.,
м/с
влажн.,
%
обл.,
%
осадки,
мм/ч
давл.,
гПа
погр.,
м
6 марта, сб
сб623:00+20ю289096 0.1 1018544
02:00+19ю149198 0.1 1017313
05:00+18ююз119676 0.0 101723
08:00+21ююз127639 0.0 1018496
11:00+27всв225730 0.0 10161114
14:00+26в336457 0.0 1013875
17:00+24в467743 0.0 1012708
20:00+20в249371 0.3 1015348
7 марта, вс
вс723:00+19в1194100 0.3 1015114
02:00+18св119885 0.3 101454
05:00+18св119690 0.0 101378
08:00+21св128891 0.0 1014298
11:00+27в216248 0.0 1013952
14:00+28вюв446128 0.0 10111008
17:00+24в468085 0.1 1011656
20:00+21всв259389 0.2 1013409
8 марта, пн
пн823:00+20всв1494100 0.1 1013289
02:00+20св149599 0.1 1011299
05:00+20св129595 0.0 1011158
08:00+22с248465 0.0 1011409
11:00+28ссв335820 0.0 1009912
14:00+31св445010 0.0 1006825
17:00+29ссв48590 0.0 1004699
20:00+22ссз22820 0.0 100745
9 марта, вт
вт923:00+20юв129515 0.0 100829
02:00+21ссв119533 0.0 100868
05:00+21св1196100 0.0 101073
08:00+23с238596 0.1 1010320
11:00+30ссв245055 0.0 10091014
14:00+34св453734 0.0 10051384
17:00+30ссв4105274 0.0 1004591
20:00+24сз227343 0.0 100740
10 марта, ср
ср1023:00+23сз33650 0.0 100752
02:00+22зсз33620 0.0 100658
05:00+20з01541 0.0 100831
08:00+23вюв11601 0.0 1010234
11:00+30в22430 0.0 1009735
14:00+32вюв55400 0.0 1007960
17:00+27юв67710 0.0 1007820
20:00+21юв249227 0.0 1011272